Left ArrowRight Arrow

Hourly Observations for February 26, 2020

Temp ( °F °C ) Dew Point ( °F °C ) Humidity (%) Winds ( mph kmh ) Pressure ( in mb ) Visibility ( mi km ) Precip ( " mm )
12:51 am 00:51 Cloudy with Mist and Fog 46 7.8 43 6.1 89 89 NE 5 7 29.87 1012 3 5 0.00 0.00
12:58 am 00:58 Cloudy with Mist and Fog 46 7.8 43 6.1 89 89 NE 3 6 29.88 1012 3 5 0.00 0.00
1:51 am 01:51 Cloudy with Mist and Fog 46 7.8 43 6.1 89 89 N 5 7 29.88 1012 5 8 0.00 0.00
2:20 am 02:20 Cloudy with Mist and Fog 46 7.8 43 6.1 89 89 NNE 3 6 29.88 1012 2 3 0.00 0.00
2:29 am 02:29 Cloudy with Mist and Fog 46 7.8 43 6.1 89 89 Calm 29.88 1012 2 3 0.00 0.00
2:51 am 02:51 Cloudy with Mist and Fog 46 7.8 43 6.1 89 89 NE 3 6 29.88 1012 2 2 0.00 0.00
3:27 am 03:27 Cloudy with Mist and Fog 46 7.8 43 6.1 89 89 NNE 3 6 29.89 1012 2 2 0.00 0.00
3:51 am 03:51 Cloudy with Mist and Fog 46 7.8 43 6.1 89 89 Calm 29.90 1012 2 2 0.00 0.00
4:51 am 04:51 Cloudy with Mist and Fog 45 7.2 43 6.1 93 93 NNE 3 6 29.89 1012 2 2 0.00 0.00
5:51 am 05:51 Cloudy with Mist and Fog 45 7.2 43 6.1 93 93 NE 3 6 29.89 1012 2 2 0.00 0.00
5:58 am 05:58 Cloudy with Mist and Fog 46 7.8 43 6.1 89 89 NE 6 9 29.89 1012 5 8 0.00 0.00
6:51 am 06:51 Cloudy with Mist and Fog 46 7.8 43 6.1 89 89 ENE 5 7 29.90 1013 4 6 0.00 0.00
7:51 am 07:51 Cloudy with Mist and Fog 46 7.8 43 6.1 89 89 NNE 3 6 29.94 1014 4 6 0.00 0.00
8:21 am 08:21 Cloudy with Drizzle 46 7.8 43 6.1 89 89 E 5 7 29.95 1014 2 2 0.00 0.00
8:51 am 08:51 Cloudy with Drizzle 45 7.2 43 6.1 93 93 E 7 11 29.95 1014 1 2 0.00 0.00
9:51 am 09:51 Cloudy with Drizzle 46 7.8 43 6.1 89 89 E 3 6 29.95 1014 3 5 0.00 0.00
10:13 am 10:13 Cloudy with Drizzle 46 7.8 44 6.7 93 93 ENE 6 9 29.96 1015 2 3 0.00 0.00
10:51 am 10:51 Cloudy with Drizzle 46 7.8 44 6.7 93 93 ENE 5 7 29.96 1015 3 5 0.01 0.25
11:51 am 11:51 Cloudy with Drizzle 47 8.3 44 6.7 90 90 ENE 7 11 29.95 1014 2 2 0.00 0.00
12:24 pm 12:24 Cloudy with Drizzle 46 8 45 7 93 93 ENE 8 13 29.92 1013 4 6 0.00 0.00
12:51 pm 12:51 Cloudy with Mist and Fog 47 8.3 44 6.7 90 90 E 8 13 29.90 1013 4 6 0.00 0.00
1:51 pm 13:51 Cloudy with Mist and Fog 46 7.8 43 6.1 89 89 E 6 9 29.90 1013 3 5 0.00 0.00
2:51 pm 14:51 Cloudy with Mist and Fog 46 7.8 43 6.1 89 89 ENE 8 13 29.88 1012 3 5 0.00 0.00
3:51 pm 15:51 Cloudy with Mist and Fog 45 7.2 42 5.6 90 90 E 8 13 29.88 1012 4 6 0.00 0.00
4:32 pm 16:32 Cloudy with Mist and Fog 46 7.8 42 5.6 86 86 ENE 6 9 29.87 1012 10 16 0.00 0.00
4:51 pm 16:51 Cloudy with Mist and Fog 46 7.8 42 5.6 86 86 E 8 13 29.87 1011 10 16 0.00 0.00
5:51 pm 17:51 Cloudy with Mist and Fog 46 7.8 41 5 83 83 ENE 7 11 29.83 1010 8 13 0.00 0.00
6:51 pm 18:51 Cloudy 46 7.8 42 5.6 86 86 E 5 7 29.82 1010 10 16 0.00 0.00
7:51 pm 19:51 Cloudy 46 7.8 42 5.6 86 86 ESE 9 15 29.80 1009 10 16 0.00 0.00
8:51 pm 20:51 Cloudy 46 7.8 42 5.6 86 86 E 13 20 29.77 1008 10 16 0.00 0.00
9:51 pm 21:51 Cloudy with Mist and Fog 46 7.8 42 5.6 86 86 ESE 8 13 29.74 1007 5 8 0.00 0.00
10:51 pm 22:51 Cloudy with Light Rain 44 6.7 41 5 89 89 E 12 19 29.68 1005 3 5 0.00 0.00
11:51 pm 23:51 Cloudy with Light Rain 43 6.1 41 5 93 93 ENE 10 17 29.61 1003 3 4 0.00 0.00

Powered by Vaisala Xweather